VIR155M EGLL-KLAS

Flight info

Callsign VIR155M
Flight time N/A
Altitude 40000
Route CPT L9 DIDZA N14 OKTAD DCT MEDOG DCT VATRY DCT RESNO/M086F400 DCT 5630N02000W 59N030W 5930N04000W 60N050W DCT RADUN/N0498F400 DCT SEMTO DCT KEMSA DCT 54N090W DCT KAIIN DCT SEGAP Q945 DIK DCT FBR DCT MLF DCT STEWW CHOWW4
Aircraft B789/H-SDE1E2E3FGHIJ2J3J4J5M1RWXY/LB1D1

Departure

Time N/A
Airport London Heathrow Airport (EGLL)

Arrival

Time 2026-05-04 18:43
Airport Harry Reid International Airport (KLAS)
Time Latitude Longitude Altitude Speed Heading
2026-05-04 18:07 38.42303 -112.96218 39932 ft 414 kts 219°
2026-05-04 18:08 38.37431 -113.00170 39934 ft 415 kts 216°
2026-05-04 18:08 38.32122 -113.03173 39929 ft 424 kts 208°
2026-05-04 18:09 38.21058 -113.08438 39866 ft 423 kts 208°
2026-05-04 18:10 38.15545 -113.11052 39827 ft 422 kts 208°
2026-05-04 18:10 38.10017 -113.13665 39790 ft 422 kts 208°
2026-05-04 18:11 38.04613 -113.16214 39775 ft 415 kts 208°
2026-05-04 18:11 37.99176 -113.18784 39779 ft 418 kts 208°
2026-05-04 18:12 37.93731 -113.21342 39856 ft 418 kts 208°
2026-05-04 18:12 37.88259 -113.23916 39890 ft 419 kts 208°
2026-05-04 18:13 37.82850 -113.26448 39917 ft 409 kts 209°
2026-05-04 18:14 37.74865 -113.30196 39921 ft 411 kts 209°
2026-05-04 18:14 37.69484 -113.32707 39922 ft 411 kts 209°
2026-05-04 18:15 37.58791 -113.37690 39880 ft 404 kts 210°
2026-05-04 18:16 37.53550 -113.40135 39856 ft 404 kts 210°
2026-05-04 18:16 37.48224 -113.42607 39834 ft 405 kts 210°
2026-05-04 18:17 37.42995 -113.45026 39661 ft 395 kts 210°
2026-05-04 18:17 37.40415 -113.46220 39101 ft 393 kts 210°
2026-05-04 18:17 37.35372 -113.48555 38398 ft 377 kts 211°
2026-05-04 18:18 37.32923 -113.49686 37660 ft 376 kts 211°
2026-05-04 18:18 37.30432 -113.50853 36696 ft 384 kts 211°
2026-05-04 18:18 37.27983 -113.51983 36290 ft 378 kts 210°
2026-05-04 18:18 37.25514 -113.53112 35820 ft 378 kts 210°
2026-05-04 18:19 37.20657 -113.55864 34771 ft 391 kts 214°
2026-05-04 18:19 37.18164 -113.57312 34178 ft 397 kts 213°
2026-05-04 18:19 37.15689 -113.58748 33578 ft 399 kts 213°
2026-05-04 18:20 37.13159 -113.60230 32974 ft 398 kts 213°
2026-05-04 18:20 37.10664 -113.61691 32363 ft 393 kts 213°
2026-05-04 18:20 37.08196 -113.63131 31767 ft 388 kts 213°
2026-05-04 18:20 37.05756 -113.64557 31192 ft 385 kts 213°
2026-05-04 18:21 37.03324 -113.65977 30620 ft 386 kts 213°
2026-05-04 18:21 37.00912 -113.67386 30052 ft 387 kts 212°
2026-05-04 18:21 36.98465 -113.68810 29444 ft 387 kts 212°
2026-05-04 18:21 36.96018 -113.70229 28859 ft 382 kts 212°
2026-05-04 18:22 36.93633 -113.71613 28437 ft 376 kts 212°
2026-05-04 18:22 36.91246 -113.73017 27944 ft 381 kts 212°
2026-05-04 18:22 36.88849 -113.74426 27447 ft 383 kts 212°
2026-05-04 18:22 36.86424 -113.75837 26973 ft 381 kts 211°
2026-05-04 18:23 36.84057 -113.77210 26502 ft 380 kts 211°
2026-05-04 18:23 36.81663 -113.78606 26012 ft 380 kts 211°
2026-05-04 18:23 36.79254 -113.80009 25531 ft 379 kts 211°
2026-05-04 18:23 36.76863 -113.81400 25057 ft 379 kts 211°
2026-05-04 18:24 36.74474 -113.82789 24582 ft 379 kts 210°
2026-05-04 18:24 36.72081 -113.84179 24113 ft 378 kts 210°
2026-05-04 18:24 36.69693 -113.85562 23647 ft 377 kts 210°
2026-05-04 18:24 36.67339 -113.86931 23143 ft 378 kts 210°
2026-05-04 18:25 36.64952 -113.88315 22651 ft 375 kts 210°
2026-05-04 18:25 36.62568 -113.89694 22174 ft 371 kts 210°
2026-05-04 18:25 36.60367 -113.91202 21737 ft 362 kts 218°
2026-05-04 18:25 36.58391 -113.93115 21286 ft 357 kts 225°
2026-05-04 18:26 36.57243 -113.94561 20994 ft 354 kts 231°
2026-05-04 18:26 36.55713 -113.96956 20547 ft 352 kts 233°
2026-05-04 18:26 36.54209 -113.99367 20102 ft 353 kts 233°
2026-05-04 18:26 36.52704 -114.01785 19653 ft 352 kts 233°
2026-05-04 18:27 36.51209 -114.04198 19209 ft 351 kts 233°
2026-05-04 18:27 36.49731 -114.06580 18776 ft 343 kts 233°
2026-05-04 18:27 36.48283 -114.08908 18340 ft 337 kts 233°
2026-05-04 18:27 36.46881 -114.11163 17911 ft 330 kts 232°
2026-05-04 18:28 36.45492 -114.13397 17482 ft 322 kts 232°
2026-05-04 18:28 36.44135 -114.15576 17077 ft 314 kts 232°
2026-05-04 18:28 36.42812 -114.17698 16687 ft 307 kts 232°
2026-05-04 18:28 36.41522 -114.19767 16314 ft 300 kts 232°
2026-05-04 18:29 36.40262 -114.21788 15935 ft 293 kts 231°
2026-05-04 18:29 36.39024 -114.23770 15573 ft 288 kts 231°
2026-05-04 18:29 36.37783 -114.25716 15274 ft 286 kts 230°
2026-05-04 18:29 36.36544 -114.27648 14969 ft 288 kts 230°
2026-05-04 18:30 36.34069 -114.31534 14249 ft 288 kts 230°
2026-05-04 18:30 36.32816 -114.33500 13883 ft 288 kts 229°
2026-05-04 18:30 36.31575 -114.35444 13527 ft 287 kts 229°
2026-05-04 18:31 36.30339 -114.37376 13145 ft 284 kts 229°
2026-05-04 18:31 36.29117 -114.39289 12795 ft 283 kts 230°
2026-05-04 18:31 36.27895 -114.41201 12437 ft 282 kts 230°
2026-05-04 18:31 36.26702 -114.43067 12083 ft 277 kts 230°
2026-05-04 18:32 36.25497 -114.44952 11743 ft 279 kts 229°
2026-05-04 18:32 36.24282 -114.46829 11393 ft 277 kts 229°
2026-05-04 18:32 36.23076 -114.48668 11047 ft 275 kts 228°
2026-05-04 18:32 36.21865 -114.50519 10701 ft 275 kts 229°
2026-05-04 18:33 36.20670 -114.52355 10357 ft 272 kts 228°
2026-05-04 18:33 36.19498 -114.54152 10021 ft 269 kts 228°
2026-05-04 18:33 36.18327 -114.55947 9693 ft 264 kts 228°
2026-05-04 18:33 36.17197 -114.57674 9355 ft 259 kts 228°
2026-05-04 18:34 36.16053 -114.59423 9030 ft 257 kts 228°
2026-05-04 18:34 36.14944 -114.61120 8856 ft 253 kts 228°
2026-05-04 18:34 36.13832 -114.62816 8857 ft 255 kts 227°
2026-05-04 18:34 36.12704 -114.64534 8692 ft 257 kts 228°
2026-05-04 18:35 36.11584 -114.66249 8528 ft 252 kts 228°
2026-05-04 18:35 36.10506 -114.67897 8349 ft 239 kts 228°
2026-05-04 18:35 36.09498 -114.69434 8193 ft 228 kts 227°
2026-05-04 18:35 36.08510 -114.70938 8040 ft 221 kts 227°
2026-05-04 18:36 36.07622 -114.72489 7924 ft 223 kts 245°
2026-05-04 18:36 36.07318 -114.74381 7919 ft 231 kts 265°
2026-05-04 18:36 36.07384 -114.76299 7663 ft 238 kts 264°
2026-05-04 18:36 36.07379 -114.78330 7377 ft 234 kts 265°
2026-05-04 18:37 36.07382 -114.80305 7091 ft 226 kts 264°
2026-05-04 18:37 36.07384 -114.82208 6812 ft 222 kts 264°
2026-05-04 18:37 36.07380 -114.84077 6513 ft 221 kts 264°
2026-05-04 18:37 36.07381 -114.85954 6229 ft 216 kts 264°
2026-05-04 18:38 36.07383 -114.87799 5941 ft 211 kts 264°
2026-05-04 18:38 36.07383 -114.89587 5648 ft 205 kts 264°
2026-05-04 18:38 36.07382 -114.91327 5369 ft 199 kts 264°
2026-05-04 18:38 36.07383 -114.93006 5121 ft 191 kts 264°
2026-05-04 18:39 36.07383 -114.94589 4870 ft 182 kts 265°
2026-05-04 18:39 36.07388 -114.96117 4640 ft 169 kts 264°
2026-05-04 18:39 36.07379 -114.97548 4439 ft 167 kts 263°
2026-05-04 18:39 36.07381 -114.98944 4232 ft 162 kts 262°
2026-05-04 18:40 36.07380 -115.00365 4019 ft 164 kts 262°
2026-05-04 18:40 36.07372 -115.01732 3814 ft 151 kts 263°
2026-05-04 18:40 36.07371 -115.02970 3635 ft 140 kts 266°
2026-05-04 18:40 36.07379 -115.04165 3460 ft 136 kts 264°
2026-05-04 18:41 36.07364 -115.05325 3296 ft 139 kts 263°
2026-05-04 18:41 36.07360 -115.06574 3132 ft 148 kts 263°
2026-05-04 18:41 36.07366 -115.07888 2843 ft 159 kts 266°
2026-05-04 18:41 36.07382 -115.09221 2666 ft 150 kts 260°
2026-05-04 18:42 36.07359 -115.10490 2447 ft 148 kts 264°
2026-05-04 18:42 36.07365 -115.11768 2237 ft 154 kts 263°
2026-05-04 18:42 36.07371 -115.13093 2077 ft 146 kts 264°
2026-05-04 18:42 36.07367 -115.14002 2088 ft 61 kts 270°
2026-05-04 18:43 36.07366 -115.14331 2094 ft 33 kts 270°
2026-05-04 18:43 36.07367 -115.14603 2097 ft 31 kts 270°
2026-05-04 18:43 36.07392 -115.14849 2101 ft 28 kts 289°
2026-05-04 18:43 36.07470 -115.15049 2106 ft 18 kts 304°
2026-05-04 18:44 36.07482 -115.15069 2105 ft 0 kts 307°
2026-05-04 18:44 36.07492 -115.15083 2105 ft 5 kts 312°
2026-05-04 18:45 36.07531 -115.15126 2108 ft 10 kts 325°
2026-05-04 18:45 36.07594 -115.15170 2114 ft 12 kts 334°
2026-05-04 18:45 36.07686 -115.15223 2115 ft 19 kts 334°
2026-05-04 18:45 36.07817 -115.15300 2106 ft 16 kts 335°
2026-05-04 18:46 36.07867 -115.15291 2106 ft 4 kts 50°
2026-05-04 18:46 36.07877 -115.15248 2104 ft 7 kts 84°
2026-05-04 18:46 36.07879 -115.15181 2104 ft 9 kts 89°
2026-05-04 18:46 36.07878 -115.15094 2104 ft 11 kts 93°
2026-05-04 18:47 36.07871 -115.14986 2104 ft 14 kts 95°
2026-05-04 18:47 36.07862 -115.14866 2103 ft 15 kts 94°
2026-05-04 18:47 36.07853 -115.14729 2102 ft 17 kts 94°
2026-05-04 18:47 36.07843 -115.14574 2102 ft 19 kts 95°
2026-05-04 18:48 36.07830 -115.14404 2101 ft 21 kts 95°
2026-05-04 18:48 36.07828 -115.14225 2100 ft 18 kts 90°
2026-05-04 18:48 36.07851 -115.14166 2100 ft 5 kts 21°
2026-05-04 18:48 36.07900 -115.14159 2100 ft 9 kts 359°
2026-05-04 18:49 36.07979 -115.14158 2100 ft 14 kts
2026-05-04 18:49 36.08092 -115.14158 2100 ft 19 kts 360°
2026-05-04 18:49 36.08236 -115.14158 2100 ft 23 kts 360°
2026-05-04 18:49 36.08358 -115.14116 2098 ft 19 kts 43°
2026-05-04 18:50 36.08439 -115.13996 2098 ft 17 kts 76°
2026-05-04 18:50 36.08444 -115.13850 2098 ft 17 kts 89°
2026-05-04 18:50 36.08443 -115.13703 2098 ft 17 kts 90°
2026-05-04 18:50 36.08442 -115.13561 2098 ft 17 kts 90°
2026-05-04 18:51 36.08466 -115.13453 2098 ft 10 kts 32°
2026-05-04 18:51 36.08512 -115.13443 2098 ft 4 kts 360°
2026-05-04 18:51 36.08525 -115.13443 2098 ft 1 kts 360°
2026-05-04 18:51 36.08533 -115.13443 2098 ft 1 kts 360°